When you browse on this site, cookies collect data to enhance your experience and personalize the content and advertising you see.
Visit our Privacy Policy to learn more. By continuing to use the site, you agree to this use of cookies and data.
  • In Österreich
  • Länderverzeichnis
  • Für 7 Tage
  • Wassertemperatur
  • Wetterkarte
  • News
  • Widgets
  • user-avatar
    Anmelden

    Stündliche Wetter Kannyn

    Heute, 19 September, Donnerstag

    Zeit Temperatur Niederschläge Wind Luftdruck Luftfeuchtigkeit
    00:00 +18°C° 0 mm 2 m/S 755 mmHg 93%
    01:00 +17°C° 0 mm 2 m/S 755 mmHg 93%
    02:00 +17°C° 0 mm 2 m/S 755 mmHg 93%
    03:00 +17°C° 0 mm 2 m/S 755 mmHg 91%
    04:00 +16°C° 0 mm 2 m/S 755 mmHg 91%
    05:00 +16°C° 0 mm 2 m/S 755 mmHg 91%
    06:00 +15°C° 0 mm 2 m/S 755 mmHg 91%
    07:00 +17°C° 0 mm 2 m/S 756 mmHg 85%
    08:00 +18°C° 0 mm 2 m/S 756 mmHg 79%
    09:00 +20°C° 0 mm 2 m/S 756 mmHg 73%
    10:00 +23°C° 0 mm 2 m/S 756 mmHg 64%
    11:00 +25°C° 0 mm 3 m/S 755 mmHg 56%
    12:00 +27°C° 0 mm 3 m/S 755 mmHg 47%
    13:00 +26°C° 0 mm 3 m/S 754 mmHg 49%
    14:00 +26°C° 0 mm 3 m/S 754 mmHg 51%
    15:00 +25°C° 0 mm 4 m/S 753 mmHg 52%
    16:00 +24°C° 0 mm 3 m/S 753 mmHg 61%
    17:00 +21°C° 0 mm 3 m/S 753 mmHg 69%
    18:00 +20°C° 0 mm 3 m/S 753 mmHg 78%
    19:00 +19°C° 0 mm 3 m/S 753 mmHg 79%
    20:00 +18°C° 0 mm 3 m/S 754 mmHg 81%
    21:00 +17°C° 0 mm 3 m/S 754 mmHg 83%
    22:00 +17°C° 0 mm 2 m/S 754 mmHg 81%
    23:00 +17°C° 0 mm 2 m/S 754 mmHg 80%

    Morgen, 20 September, Freitag

    Zeit Temperatur Niederschläge Wind Luftdruck Luftfeuchtigkeit
    00:00 +17°C° 0 mm 2 m/S 754 mmHg 78%
    01:00 +17°C° 0 mm 2 m/S 754 mmHg 79%
    02:00 +18°C° 0 mm 1 m/S 754 mmHg 79%
    03:00 +16°C° 0 mm 1 m/S 754 mmHg 80%
    04:00 +18°C° 0 mm 1 m/S 754 mmHg 80%
    05:00 +18°C° 0 mm 1 m/S 754 mmHg 79%
    06:00 +18°C° 0 mm 1 m/S 754 mmHg 79%
    07:00 +19°C° 0 mm 1 m/S 754 mmHg 75%
    08:00 +20°C° 0 mm 1 m/S 754 mmHg 71%
    09:00 +22°C° 0 mm 1 m/S 754 mmHg 67%
    10:00 +22°C° 0 mm 1 m/S 754 mmHg 64%
    11:00 +23°C° 0 mm 2 m/S 754 mmHg 60%
    12:00 +23°C° 0 mm 2 m/S 754 mmHg 57%
    13:00 +23°C° 0 mm 2 m/S 754 mmHg 56%
    14:00 +23°C° 0 mm 2 m/S 754 mmHg 55%
    15:00 +24°C° 0 mm 2 m/S 754 mmHg 54%
    16:00 +21°C° 0 mm 2 m/S 754 mmHg 61%
    17:00 +20°C° 0 mm 2 m/S 754 mmHg 67%
    18:00 +19°C° 0 mm 2 m/S 754 mmHg 74%
    19:00 +18°C° 0 mm 2 m/S 755 mmHg 75%
    20:00 +18°C° 0 mm 2 m/S 755 mmHg 75%
    21:00 +17°C° 0 mm 2 m/S 755 mmHg 76%
    22:00 +17°C° 0 mm 2 m/S 755 mmHg 75%
    23:00 +17°C° 0 mm 2 m/S 755 mmHg 74%

    übermorgen, 21 September, Samstag

    Zeit Temperatur Niederschläge Wind Luftdruck Luftfeuchtigkeit
    00:00 +17°C° 0 mm 2 m/S 754 mmHg 73%
    01:00 +17°C° 0 mm 2 m/S 754 mmHg 75%
    02:00 +18°C° 0 mm 1 m/S 754 mmHg 77%
    03:00 +18°C° 0 mm 1 m/S 754 mmHg 79%
    04:00 +18°C° 0 mm 1 m/S 754 mmHg 81%
    05:00 +19°C° 0 mm 1 m/S 754 mmHg 83%
    06:00 +17°C° 0 mm 0 m/S 754 mmHg 85%
    07:00 +19°C° 0 mm 1 m/S 754 mmHg 84%
    08:00 +20°C° 0 mm 1 m/S 755 mmHg 82%
    09:00 +21°C° 0 mm 1 m/S 755 mmHg 80%
    10:00 +21°C° 0.1 mm 2 m/S 755 mmHg 76%
    11:00 +21°C° 0.1 mm 2 m/S 754 mmHg 72%
    12:00 +22°C° 0.1 mm 3 m/S 754 mmHg 67%
    13:00 +21°C° 0.2 mm 3 m/S 754 mmHg 71%
    14:00 +21°C° 0.2 mm 3 m/S 754 mmHg 76%
    15:00 +20°C° 0.2 mm 4 m/S 754 mmHg 80%
    16:00 +19°C° 0 mm 4 m/S 754 mmHg 82%
    17:00 +18°C° 0 mm 4 m/S 754 mmHg 83%
    18:00 +18°C° 0 mm 4 m/S 754 mmHg 85%
    19:00 +17°C° 0.1 mm 4 m/S 754 mmHg 88%
    20:00 +17°C° 0.1 mm 4 m/S 754 mmHg 90%
    21:00 +15°C° 0.1 mm 4 m/S 754 mmHg 93%
    22:00 +15°C° 0.1 mm 4 m/S 754 mmHg 93%
    23:00 +17°C° 0.1 mm 4 m/S 754 mmHg 93%

    22 September, Sonntag

    Zeit Temperatur Niederschläge Wind Luftdruck Luftfeuchtigkeit
    00:00 +17°C° 0.1 mm 4 m/S 754 mmHg 94%
    01:00 +17°C° 0.2 mm 4 m/S 753 mmHg 93%
    02:00 +16°C° 0.2 mm 5 m/S 753 mmHg 93%
    03:00 +16°C° 0.2 mm 6 m/S 753 mmHg 93%
    04:00 +16°C° 0.3 mm 6 m/S 753 mmHg 93%
    05:00 +16°C° 0.3 mm 6 m/S 752 mmHg 93%
    06:00 +16°C° 0.3 mm 6 m/S 752 mmHg 93%
    07:00 +17°C° 1 mm 7 m/S 752 mmHg 94%
    08:00 +17°C° 1 mm 7 m/S 752 mmHg 94%
    09:00 +17°C° 1 mm 7 m/S 752 mmHg 95%
    10:00 +17°C° 0.5 mm 8 m/S 752 mmHg 90%
    11:00 +17°C° 0.5 mm 9 m/S 751 mmHg 86%
    12:00 +17°C° 0.5 mm 10 m/S 750 mmHg 82%
    13:00 +17°C° 0.6 mm 11 m/S 750 mmHg 82%
    14:00 +17°C° 0.6 mm 11 m/S 750 mmHg 82%
    15:00 +16°C° 0.6 mm 11 m/S 749 mmHg 82%
    16:00 +16°C° 0.4 mm 11 m/S 749 mmHg 85%
    17:00 +16°C° 0.4 mm 11 m/S 749 mmHg 87%
    18:00 +16°C° 0.4 mm 11 m/S 749 mmHg 89%
    19:00 +14°C° 0.4 mm 11 m/S 749 mmHg 89%
    20:00 +14°C° 0.4 mm 11 m/S 749 mmHg 88%
    21:00 +14°C° 0.4 mm 11 m/S 750 mmHg 88%
    22:00 +13°C° 0.1 mm 10 m/S 750 mmHg 86%
    23:00 +13°C° 0.1 mm 9 m/S 750 mmHg 85%

    23 September, Montag

    Zeit Temperatur Niederschläge Wind Luftdruck Luftfeuchtigkeit
    00:00 +13°C° 0.1 mm 8 m/S 750 mmHg 83%
    01:00 +12°C° 0.1 mm 8 m/S 750 mmHg 84%
    02:00 +12°C° 0.1 mm 7 m/S 750 mmHg 84%
    03:00 +12°C° 0.1 mm 7 m/S 751 mmHg 85%
    04:00 +13°C° 0 mm 6 m/S 751 mmHg 85%
    05:00 +11°C° 0 mm 6 m/S 751 mmHg 85%
    06:00 +12°C° 0 mm 5 m/S 751 mmHg 86%
    07:00 +14°C° 0 mm 4 m/S 752 mmHg 80%
    08:00 +17°C° 0 mm 3 m/S 752 mmHg 75%
    09:00 +18°C° 0 mm 3 m/S 753 mmHg 70%
    10:00 +20°C° 0 mm 2 m/S 753 mmHg 64%
    11:00 +21°C° 0 mm 2 m/S 753 mmHg 58%
    12:00 +24°C° 0 mm 2 m/S 753 mmHg 53%
    13:00 +24°C° 0 mm 2 m/S 753 mmHg 53%
    14:00 +24°C° 0 mm 2 m/S 753 mmHg 53%
    15:00 +24°C° 0 mm 3 m/S 752 mmHg 52%
    16:00 +22°C° 0 mm 3 m/S 753 mmHg 59%
    17:00 +21°C° 0 mm 3 m/S 753 mmHg 66%
    18:00 +19°C° 0 mm 4 m/S 753 mmHg 73%
    19:00 +18°C° 0 mm 3 m/S 753 mmHg 77%
    20:00 +17°C° 0 mm 3 m/S 754 mmHg 81%
    21:00 +16°C° 0 mm 3 m/S 754 mmHg 85%
    22:00 +14°C° 0 mm 3 m/S 754 mmHg 86%
    23:00 +15°C° 0 mm 2 m/S 754 mmHg 87%

    24 September, Dienstag

    Zeit Temperatur Niederschläge Wind Luftdruck Luftfeuchtigkeit
    00:00 +14°C° 0 mm 2 m/S 755 mmHg 88%
    01:00 +14°C° 0 mm 2 m/S 755 mmHg 89%
    02:00 +14°C° 0 mm 2 m/S 755 mmHg 90%
    03:00 +14°C° 0 mm 2 m/S 755 mmHg 90%
    04:00 +14°C° 0 mm 2 m/S 755 mmHg 89%
    05:00 +14°C° 0 mm 2 m/S 755 mmHg 88%
    06:00 +13°C° 0 mm 2 m/S 755 mmHg 88%
    07:00 +16°C° 0 mm 1 m/S 755 mmHg 79%
    08:00 +20°C° 0 mm 1 m/S 756 mmHg 70%
    09:00 +20°C° 0 mm 0 m/S 756 mmHg 61%
    10:00 +24°C° 0 mm 1 m/S 756 mmHg 55%
    11:00 +25°C° 0 mm 1 m/S 756 mmHg 50%
    12:00 +26°C° 0 mm 2 m/S 756 mmHg 45%
    13:00 +26°C° 0 mm 2 m/S 756 mmHg 47%
    14:00 +26°C° 0 mm 2 m/S 756 mmHg 50%
    15:00 +25°C° 0 mm 2 m/S 755 mmHg 53%
    16:00 +24°C° 0 mm 2 m/S 755 mmHg 62%
    17:00 +21°C° 0 mm 2 m/S 755 mmHg 72%
    18:00 +19°C° 0 mm 2 m/S 755 mmHg 81%
    19:00 +18°C° 0 mm 2 m/S 756 mmHg 83%
    20:00 +17°C° 0 mm 2 m/S 756 mmHg 85%
    21:00 +17°C° 0 mm 2 m/S 757 mmHg 87%
    22:00 +16°C° 0 mm 2 m/S 757 mmHg 86%
    23:00 +16°C° 0 mm 2 m/S 757 mmHg 85%
    Mehr zeigen